Location: ???????
(55.3754°N, 39.3545°E)
Time: 09:24:07
(UTC+00:00)

ARIANE 6 FM1 Upper Stage - Pass Details

Date: 14 April 2026
Orbit: 526 x 601 km, 62.0° (Epoch: 19 May)

Event Time Altitude Azimuth Distance (km) Brightness Sun altitude
Rises 18:20:03 0° 258° (WSW) 2,713 6.7 -14.7°
Reaches altitude 10° 18:22:22 10° 265° (W) 1,810 5.8 -14.9°
Maximum altitude 18:26:16 44° 339° (NNW) 752 3.8 -15.3°
Drops below altitude 10° 18:30:07 10° 53° (NE) 1,787 5.2 -15.7°
Sets 18:32:23 0° 60° (ENE) 2,674 6.0 -16.0°
